Flag for U.S.A. Weather past 2 weeks in Tallahassee, Florida, U.S.A.

Now
82 °F

Passing clouds.


Feels Like: 89 °F
Forecast: 76 / 98 °F
Wind: 3 mph from Southwest

Location: Tallahassee Regional Airport

Current Time: Jul 27, 2015 at 11:54:40 PM

Latest Report: Jul 27, 2015 at 10:53 PM


Visibility: 10 mi

Pressure: 29.93 "Hg

Humidity: 79%

Dew point: 75 °F

Location of TallahasseeLocation

Historic Weather in Tallahassee — Graph

°F

Tallahassee temperature yesterday

Maximum temperature yesterday: 97 °F (at 2:53 PM)
Minimum temperature yesterday: 74 °F (at 6:53 AM)
Average temperature yesterday: 85 °F

Past Weeks' High & Low Weather Summary

 TemperatureHumidityPressure
High100 °F (Jul 13, 3:53 PM)100% (Jul 24, 8:53 PM)30.02 "Hg (Jul 24, 8:53 PM)
Low74 °F (Jul 26, 6:53 AM)33% (Jul 13, 3:53 PM)29.85 "Hg (Jul 14, 3:53 PM)
Average85 °F74%29.94 "Hg
* Reported Jul 12 9:53 PM — Jul 27 9:53 PM, Tallahassee, Weather by CustomWeather, © 2015

Note: Actual official high and low records may vary slightly from our data, if they occured in-between our weather recording intervals... More about our weather records

Advertising

Tallahassee weather history for previous 24 hours

 ConditionsComfort  
Time TempWeatherWind HumidityBarometerVisibility
9:53 PM
Mon, Jul 27
84 °FPassing clouds.3 mph74%29.92 "Hg10 mi
8:53 PM86 °FBroken clouds.3 mph70%29.92 "Hg10 mi
7:53 PM87 °FPartly sunny.8 mph65%29.90 "Hg10 mi
6:53 PM90 °FPartly sunny.9 mph56%29.90 "Hg10 mi
5:53 PM91 °FPartly sunny.9 mph57%29.90 "Hg10 mi
4:53 PM93 °FBroken clouds.9 mph50%29.89 "Hg10 mi
3:53 PM90 °FPartly sunny.12 mph57%29.91 "Hg10 mi
2:53 PM94 °FPartly sunny.10 mph43%29.92 "Hg10 mi
1:53 PM96 °FPartly sunny.5 mph43%29.93 "Hg10 mi
12:53 PM94 °FBroken clouds.10 mph49%29.95 "Hg10 mi
11:53 AM90 °FBroken clouds.10 mph52%29.95 "Hg10 mi
10:53 AM87 °FScattered clouds.9 mph67%29.96 "Hg10 mi
9:53 AM85 °FScattered clouds.6 mph74%29.97 "Hg10 mi
8:53 AM83 °FPassing clouds.6 mph77%29.96 "Hg10 mi
7:53 AM77 °FPassing clouds.6 mph85%29.94 "Hg10 mi
6:53 AM77 °FPassing clouds.5 mph85%29.93 "Hg10 mi
5:53 AM76 °FClear.5 mph88%29.90 "Hg10 mi
4:53 AM76 °FClear.5 mph88%29.89 "Hg10 mi
3:53 AM76 °FClear.N/A88%29.90 "Hg10 mi
2:53 AM79 °FClear.10 mph82%29.91 "Hg10 mi
1:53 AM78 °FWarm.8 mph82%29.91 "Hg10 mi
11:53 PM
Sun, Jul 26
82 °FPassing clouds.No wind70%29.92 "Hg7 mi
Weather by CustomWeather, © 2015

See weather overviewHow to use our weather pages